FDX1220 KDEN-KMEM

Flight info

Callsign FDX1220
Flight time 1h 38m
Altitude 37000
Route EPKEE7 DUUZE KK45C LITTR HOBRK4
Aircraft MD11/H-SDE1E2E3FGHIJ2J3J4J5M1RWXY/LB1D1

Departure

Time 2026-05-08 02:54
Airport Denver International Airport (KDEN)

Arrival

Time 2026-05-08 04:33
Airport Memphis International Airport (KMEM)
Time Latitude Longitude Altitude Speed Heading
2026-05-08 02:00 39.83093 -104.67344 5401 ft 0 kts 360°
2026-05-08 02:35 39.83090 -104.67344 5399 ft 2 kts 360°
2026-05-08 02:36 39.83075 -104.67344 5398 ft 2 kts 360°
2026-05-08 02:36 39.83060 -104.67344 5397 ft 2 kts 360°
2026-05-08 02:36 39.83045 -104.67344 5398 ft 2 kts 360°
2026-05-08 02:36 39.83030 -104.67344 5399 ft 2 kts 12°
2026-05-08 02:37 39.83017 -104.67353 5400 ft 2 kts 48°
2026-05-08 02:37 39.83010 -104.67370 5401 ft 2 kts 78°
2026-05-08 02:37 39.83010 -104.67390 5401 ft 2 kts 95°
2026-05-08 02:37 39.83010 -104.67397 5401 ft 0 kts 94°
2026-05-08 02:40 39.83009 -104.67382 5401 ft 4 kts 94°
2026-05-08 02:41 39.83007 -104.67334 5401 ft 6 kts 94°
2026-05-08 02:41 39.82993 -104.67255 5401 ft 10 kts 117°
2026-05-08 02:41 39.82963 -104.67191 5401 ft 4 kts 121°
2026-05-08 02:41 39.82952 -104.67169 5403 ft 1 kts 121°
2026-05-08 02:42 39.82952 -104.67167 5403 ft 0 kts 121°
2026-05-08 02:42 39.82951 -104.67166 5403 ft 0 kts 121°
2026-05-08 02:42 39.82944 -104.67151 5404 ft 4 kts 121°
2026-05-08 02:42 39.82914 -104.67111 5405 ft 8 kts 158°
2026-05-08 02:43 39.82866 -104.67093 5405 ft 7 kts 140°
2026-05-08 02:43 39.82847 -104.67009 5405 ft 11 kts 89°
2026-05-08 02:43 39.82848 -104.66904 5409 ft 11 kts 90°
2026-05-08 02:43 39.82847 -104.66798 5416 ft 11 kts 90°
2026-05-08 02:44 39.82846 -104.66693 5424 ft 11 kts 90°
2026-05-08 02:44 39.82845 -104.66589 5430 ft 12 kts 90°
2026-05-08 02:44 39.82845 -104.66465 5433 ft 15 kts 90°
2026-05-08 02:44 39.82844 -104.66347 5433 ft 9 kts 90°
2026-05-08 02:45 39.82866 -104.66274 5433 ft 9 kts 26°
2026-05-08 02:45 39.82937 -104.66267 5433 ft 11 kts
2026-05-08 02:45 39.83027 -104.66266 5433 ft 14 kts
2026-05-08 02:45 39.83136 -104.66265 5433 ft 16 kts
2026-05-08 02:46 39.83260 -104.66264 5433 ft 18 kts
2026-05-08 02:46 39.83401 -104.66262 5431 ft 21 kts
2026-05-08 02:46 39.83563 -104.66260 5429 ft 24 kts
2026-05-08 02:46 39.83738 -104.66258 5427 ft 26 kts
2026-05-08 02:47 39.83929 -104.66255 5421 ft 28 kts
2026-05-08 02:47 39.84135 -104.66254 5415 ft 30 kts
2026-05-08 02:47 39.84351 -104.66251 5408 ft 31 kts
2026-05-08 02:47 39.84576 -104.66248 5403 ft 32 kts
2026-05-08 02:48 39.84799 -104.66245 5401 ft 31 kts
2026-05-08 02:48 39.85019 -104.66242 5399 ft 31 kts
2026-05-08 02:48 39.85239 -104.66241 5397 ft 31 kts
2026-05-08 02:48 39.85453 -104.66239 5395 ft 30 kts
2026-05-08 02:49 39.85666 -104.66238 5394 ft 30 kts
2026-05-08 02:49 39.85876 -104.66232 5392 ft 30 kts
2026-05-08 02:49 39.86084 -104.66231 5390 ft 29 kts
2026-05-08 02:49 39.86287 -104.66228 5390 ft 28 kts
2026-05-08 02:50 39.86489 -104.66225 5389 ft 28 kts 360°
2026-05-08 02:50 39.86691 -104.66222 5384 ft 29 kts
2026-05-08 02:50 39.86904 -104.66220 5376 ft 31 kts 360°
2026-05-08 02:50 39.87132 -104.66218 5369 ft 33 kts
2026-05-08 02:51 39.87360 -104.66214 5365 ft 32 kts 360°
2026-05-08 02:51 39.87553 -104.66213 5361 ft 19 kts
2026-05-08 02:51 39.87637 -104.66211 5361 ft 7 kts
2026-05-08 02:51 39.87693 -104.66209 5361 ft 8 kts
2026-05-08 02:52 39.87730 -104.66209 5361 ft 4 kts
2026-05-08 02:52 39.87751 -104.66192 5361 ft 3 kts 58°
2026-05-08 02:52 39.87756 -104.66154 5361 ft 2 kts 92°
2026-05-08 02:52 39.87756 -104.66152 5361 ft 0 kts 91°
2026-05-08 02:53 39.87756 -104.66148 5361 ft 5 kts 91°
2026-05-08 02:53 39.87753 -104.65813 5361 ft 73 kts 90°
2026-05-08 02:53 39.87746 -104.64833 5347 ft 143 kts 90°
2026-05-08 02:54 39.87734 -104.63267 5350 ft 195 kts 89°
2026-05-08 02:54 39.87735 -104.61513 5835 ft 198 kts 89°
2026-05-08 02:54 39.87677 -104.59700 6406 ft 201 kts 104°
2026-05-08 02:54 39.87223 -104.57992 7011 ft 204 kts 112°
2026-05-08 02:55 39.86615 -104.56345 7633 ft 206 kts 112°
2026-05-08 02:55 39.85481 -104.52829 8608 ft 220 kts 110°
2026-05-08 02:55 39.84875 -104.50917 8884 ft 242 kts 110°
2026-05-08 02:56 39.84202 -104.48789 9171 ft 264 kts 110°
2026-05-08 02:56 39.83441 -104.46507 9594 ft 283 kts 111°
2026-05-08 02:56 39.82616 -104.44102 10167 ft 299 kts 111°
2026-05-08 02:56 39.81779 -104.41626 10858 ft 309 kts 111°
2026-05-08 02:57 39.80912 -104.39020 11610 ft 319 kts 111°
2026-05-08 02:57 39.79968 -104.36270 11896 ft 347 kts 112°
2026-05-08 02:57 39.78912 -104.33273 12050 ft 378 kts 114°
2026-05-08 02:57 39.77777 -104.30043 12168 ft 408 kts 114°
2026-05-08 02:58 39.76576 -104.26605 12762 ft 422 kts 114°
2026-05-08 02:58 39.75346 -104.23074 13555 ft 431 kts 114°
2026-05-08 02:58 39.74102 -104.19497 14381 ft 438 kts 114°
2026-05-08 02:58 39.72846 -104.15878 15186 ft 445 kts 113°
2026-05-08 02:59 39.71567 -104.12221 15991 ft 451 kts 114°
2026-05-08 02:59 39.70247 -104.08518 16779 ft 457 kts 114°
2026-05-08 02:59 39.68899 -104.04736 17505 ft 464 kts 114°
2026-05-08 02:59 39.67538 -104.00899 18233 ft 470 kts 114°
2026-05-08 03:00 39.66161 -103.96999 18983 ft 476 kts 113°
2026-05-08 03:00 39.64730 -103.93109 19641 ft 483 kts 116°
2026-05-08 03:00 39.63143 -103.89243 20383 ft 487 kts 118°
2026-05-08 03:00 39.61536 -103.85393 21089 ft 492 kts 118°
2026-05-08 03:01 39.59906 -103.81470 21775 ft 497 kts 117°
2026-05-08 03:01 39.58422 -103.77370 22375 ft 503 kts 111°
2026-05-08 03:01 39.57207 -103.73139 23047 ft 507 kts 109°
2026-05-08 03:01 39.56022 -103.68855 23687 ft 512 kts 109°
2026-05-08 03:02 39.54797 -103.64491 24334 ft 517 kts 109°
2026-05-08 03:02 39.53550 -103.60106 24919 ft 522 kts 109°
2026-05-08 03:02 39.52292 -103.55701 25484 ft 527 kts 109°
2026-05-08 03:02 39.51001 -103.51201 26057 ft 531 kts 109°
2026-05-08 03:03 39.49718 -103.46725 26670 ft 534 kts 110°
2026-05-08 03:03 39.48435 -103.42245 27266 ft 538 kts 110°
2026-05-08 03:03 39.47123 -103.37663 27816 ft 542 kts 110°
2026-05-08 03:03 39.45840 -103.33179 28631 ft 539 kts 110°
2026-05-08 03:04 39.44537 -103.28611 29380 ft 537 kts 110°
2026-05-08 03:04 39.43247 -103.24088 30117 ft 535 kts 110°
2026-05-08 03:04 39.41972 -103.19614 30867 ft 533 kts 110°
2026-05-08 03:04 39.40705 -103.15158 31530 ft 532 kts 110°
2026-05-08 03:05 39.39399 -103.10564 32203 ft 530 kts 110°
2026-05-08 03:05 39.38142 -103.06130 32814 ft 529 kts 110°
2026-05-08 03:05 39.36858 -103.01595 33399 ft 528 kts 109°
2026-05-08 03:05 39.35592 -102.97115 33971 ft 527 kts 109°
2026-05-08 03:06 39.34228 -102.92725 34396 ft 527 kts 115°
2026-05-08 03:06 39.32582 -102.88519 34775 ft 525 kts 118°
2026-05-08 03:06 39.30876 -102.84370 35116 ft 525 kts 118°
2026-05-08 03:06 39.29178 -102.80196 35413 ft 526 kts 117°
2026-05-08 03:07 39.27500 -102.76006 35757 ft 525 kts 117°
2026-05-08 03:07 39.25835 -102.71811 36069 ft 524 kts 117°
2026-05-08 03:07 39.24198 -102.67657 36398 ft 524 kts 117°
2026-05-08 03:07 39.22545 -102.63461 36731 ft 524 kts 117°
2026-05-08 03:08 39.20887 -102.59244 37050 ft 524 kts 117°
2026-05-08 03:08 39.17608 -102.50903 37036 ft 524 kts 117°
2026-05-08 03:09 39.14321 -102.42516 37014 ft 525 kts 117°
2026-05-08 03:09 39.10966 -102.34171 36989 ft 526 kts 119°
2026-05-08 03:10 39.07550 -102.25837 36990 ft 526 kts 119°
2026-05-08 03:10 39.04140 -102.17447 37002 ft 527 kts 119°
2026-05-08 03:11 39.00759 -102.09107 37000 ft 527 kts 118°
2026-05-08 03:11 38.97397 -102.00789 37007 ft 528 kts 118°
2026-05-08 03:12 38.94011 -101.92402 36997 ft 527 kts 119°
2026-05-08 03:12 38.90640 -101.84044 36992 ft 527 kts 118°
2026-05-08 03:13 38.87298 -101.75742 36973 ft 526 kts 118°
2026-05-08 03:13 38.84013 -101.67286 36972 ft 527 kts 115°
2026-05-08 03:14 38.81044 -101.58781 36964 ft 527 kts 115°
2026-05-08 03:14 38.78042 -101.50192 36969 ft 527 kts 115°
2026-05-08 03:15 38.75039 -101.41644 36963 ft 527 kts 115°
2026-05-08 03:15 38.72032 -101.33076 36965 ft 528 kts 115°
2026-05-08 03:16 38.69010 -101.24451 36974 ft 527 kts 115°
2026-05-08 03:16 38.66016 -101.15891 36974 ft 527 kts 115°
2026-05-08 03:17 38.63012 -101.07288 36951 ft 528 kts 115°
2026-05-08 03:17 38.60016 -100.98688 36950 ft 528 kts 115°
2026-05-08 03:18 38.57027 -100.90091 36958 ft 528 kts 115°
2026-05-08 03:18 38.54056 -100.81524 36939 ft 529 kts 115°
2026-05-08 03:19 38.51071 -100.72896 36952 ft 529 kts 115°
2026-05-08 03:19 38.48088 -100.64354 36969 ft 529 kts 116°
2026-05-08 03:20 38.44946 -100.55827 36964 ft 530 kts 116°
2026-05-08 03:20 38.41839 -100.47313 36953 ft 530 kts 116°
2026-05-08 03:21 38.38751 -100.38810 36963 ft 530 kts 116°
2026-05-08 03:21 38.35636 -100.30203 36949 ft 530 kts 117°
2026-05-08 03:22 38.32569 -100.21721 36951 ft 530 kts 117°
2026-05-08 03:22 38.29489 -100.13192 36944 ft 530 kts 116°
2026-05-08 03:23 38.26415 -100.04656 36922 ft 531 kts 116°
2026-05-08 03:23 38.23363 -99.96169 36929 ft 531 kts 116°
2026-05-08 03:24 38.20284 -99.87573 36915 ft 531 kts 116°
2026-05-08 03:24 38.17250 -99.79102 36915 ft 530 kts 116°
2026-05-08 03:25 38.14191 -99.70545 36930 ft 531 kts 117°
2026-05-08 03:25 38.10988 -99.62045 36931 ft 531 kts 118°
2026-05-08 03:26 38.07802 -99.53617 36927 ft 532 kts 117°
2026-05-08 03:26 38.04624 -99.45136 36931 ft 532 kts 117°
2026-05-08 03:27 38.01447 -99.36644 36936 ft 532 kts 118°
2026-05-08 03:27 37.98259 -99.28103 36945 ft 532 kts 118°
2026-05-08 03:28 37.95095 -99.19624 36921 ft 532 kts 118°
2026-05-08 03:28 37.91953 -99.11176 36928 ft 533 kts 118°
2026-05-08 03:29 37.88784 -99.02629 36929 ft 532 kts 118°
2026-05-08 03:29 37.85630 -98.94125 36930 ft 533 kts 118°
2026-05-08 03:30 37.80933 -98.81416 36915 ft 533 kts 118°
2026-05-08 03:31 37.74517 -98.64534 36907 ft 534 kts 120°
2026-05-08 03:32 37.69646 -98.51896 36897 ft 536 kts 120°
2026-05-08 03:32 37.66404 -98.43429 36899 ft 535 kts 120°
2026-05-08 03:33 37.63162 -98.34956 36927 ft 534 kts 121°
2026-05-08 03:33 37.59949 -98.26548 36910 ft 533 kts 121°
2026-05-08 03:34 37.56760 -98.18199 36925 ft 534 kts 121°
2026-05-08 03:34 37.53534 -98.09712 36929 ft 536 kts 121°
2026-05-08 03:34 37.51943 -98.05533 37119 ft 536 kts 121°
2026-05-08 03:35 37.50348 -98.01269 36952 ft 536 kts 121°
2026-05-08 03:35 37.46912 -97.93018 36938 ft 531 kts 126°
2026-05-08 03:36 37.43225 -97.84969 36925 ft 531 kts 126°
2026-05-08 03:36 37.39542 -97.76884 36930 ft 530 kts 126°
2026-05-08 03:37 37.35881 -97.68820 36918 ft 531 kts 126°
2026-05-08 03:37 37.32239 -97.60770 36932 ft 531 kts 126°
2026-05-08 03:38 37.28553 -97.52631 36942 ft 533 kts 126°
2026-05-08 03:38 37.24922 -97.44601 36942 ft 534 kts 126°
2026-05-08 03:39 37.21245 -97.36446 36942 ft 534 kts 126°
2026-05-08 03:39 37.17661 -97.28474 36948 ft 533 kts 126°
2026-05-08 03:40 37.14040 -97.20421 36950 ft 532 kts 127°
2026-05-08 03:40 37.10422 -97.12379 36959 ft 533 kts 127°
2026-05-08 03:41 37.06773 -97.04240 36973 ft 536 kts 127°
2026-05-08 03:41 37.03074 -96.96206 36975 ft 533 kts 128°
2026-05-08 03:42 36.99291 -96.88180 36953 ft 534 kts 128°
2026-05-08 03:42 36.95557 -96.80176 36971 ft 537 kts 128°
2026-05-08 03:43 36.91795 -96.72102 36945 ft 539 kts 128°
2026-05-08 03:43 36.88016 -96.63977 36936 ft 540 kts 128°
2026-05-08 03:44 36.84248 -96.55872 36947 ft 540 kts 128°
2026-05-08 03:44 36.80486 -96.47756 36960 ft 542 kts 128°
2026-05-08 03:45 36.76713 -96.39606 36947 ft 543 kts 128°
2026-05-08 03:45 36.72710 -96.30948 36940 ft 542 kts 129°
2026-05-08 03:46 36.68950 -96.22811 36947 ft 544 kts 129°
2026-05-08 03:46 36.65176 -96.14628 36968 ft 546 kts 129°
2026-05-08 03:47 36.61326 -96.06476 36977 ft 546 kts 130°
2026-05-08 03:47 36.57402 -95.98361 36972 ft 548 kts 130°
2026-05-08 03:48 36.53498 -95.90218 36980 ft 547 kts 130°
2026-05-08 03:48 36.49605 -95.82077 36968 ft 548 kts 130°
2026-05-08 03:49 36.45707 -95.73926 36974 ft 550 kts 130°
2026-05-08 03:49 36.41821 -95.65777 36986 ft 551 kts 130°
2026-05-08 03:50 36.37914 -95.57577 36981 ft 552 kts 130°
2026-05-08 03:50 36.34020 -95.49384 36985 ft 553 kts 130°
2026-05-08 03:51 36.30109 -95.41161 37010 ft 554 kts 130°
2026-05-08 03:51 36.26184 -95.32875 37012 ft 555 kts 130°
2026-05-08 03:52 36.22288 -95.24650 36982 ft 553 kts 130°
2026-05-08 03:52 36.18330 -95.16546 37003 ft 551 kts 132°
2026-05-08 03:53 36.14326 -95.08469 37020 ft 552 kts 132°
2026-05-08 03:53 36.10319 -95.00330 36989 ft 555 kts 131°
2026-05-08 03:54 36.06330 -94.92194 36991 ft 554 kts 131°
2026-05-08 03:54 36.02319 -94.84007 37015 ft 555 kts 131°
2026-05-08 03:55 35.98306 -94.75822 37016 ft 558 kts 131°
2026-05-08 03:55 35.94317 -94.67653 37008 ft 557 kts 131°
2026-05-08 03:56 35.90317 -94.59467 37031 ft 556 kts 131°
2026-05-08 03:56 35.86322 -94.51278 37029 ft 558 kts 131°
2026-05-08 03:57 35.82324 -94.43057 37034 ft 558 kts 131°
2026-05-08 03:57 35.78350 -94.34892 37048 ft 559 kts 132°
2026-05-08 03:58 35.74295 -94.26864 37034 ft 554 kts 133°
2026-05-08 03:58 35.70213 -94.18830 37052 ft 557 kts 133°
2026-05-08 03:59 35.66122 -94.10709 37060 ft 557 kts 133°
2026-05-08 03:59 35.62076 -94.02676 37045 ft 558 kts 133°
2026-05-08 04:00 35.57986 -93.94546 37051 ft 561 kts 132°
2026-05-08 04:00 35.53892 -93.86384 37047 ft 560 kts 132°
2026-05-08 04:01 35.49803 -93.78236 37036 ft 561 kts 132°
2026-05-08 04:01 35.45723 -93.70082 37030 ft 562 kts 132°
2026-05-08 04:02 35.41656 -93.61948 37028 ft 561 kts 131°
2026-05-08 04:02 35.37567 -93.53750 37044 ft 561 kts 131°
2026-05-08 04:03 35.33488 -93.45645 37038 ft 563 kts 133°
2026-05-08 04:03 35.27198 -93.33562 37047 ft 558 kts 133°
2026-05-08 04:04 35.23038 -93.25526 37027 ft 558 kts 133°
2026-05-08 04:04 35.18905 -93.17508 37030 ft 559 kts 133°
2026-05-08 04:05 35.14746 -93.09445 37031 ft 559 kts 133°
2026-05-08 04:05 35.10628 -93.01441 37038 ft 560 kts 132°
2026-05-08 04:06 35.06496 -92.93404 37049 ft 560 kts 132°
2026-05-08 04:06 35.02350 -92.85328 37045 ft 559 kts 132°
2026-05-08 04:07 34.98226 -92.77303 37042 ft 561 kts 131°
2026-05-08 04:07 34.94090 -92.69213 37054 ft 562 kts 132°
2026-05-08 04:08 34.89931 -92.61092 37047 ft 559 kts 132°
2026-05-08 04:08 34.85762 -92.53188 37035 ft 557 kts 133°
2026-05-08 04:09 34.81611 -92.45303 37069 ft 558 kts 132°
2026-05-08 04:09 34.77422 -92.37308 37060 ft 561 kts 132°
2026-05-08 04:10 34.73303 -92.29428 37045 ft 558 kts 133°
2026-05-08 04:10 34.69165 -92.21414 37032 ft 562 kts 129°
2026-05-08 04:11 34.67427 -92.17073 37054 ft 574 kts 120°
2026-05-08 04:11 34.66161 -92.12488 37041 ft 584 kts 110°
2026-05-08 04:11 34.65072 -92.02635 37042 ft 595 kts 96°
2026-05-08 04:12 34.64471 -91.92653 36255 ft 593 kts 101°
2026-05-08 04:12 34.63935 -91.87698 35134 ft 593 kts 103°
2026-05-08 04:12 34.63331 -91.82789 34180 ft 592 kts 104°
2026-05-08 04:13 34.62701 -91.77835 33293 ft 592 kts 104°
2026-05-08 04:13 34.62083 -91.72928 32480 ft 593 kts 104°
2026-05-08 04:13 34.61454 -91.67994 31606 ft 594 kts 103°
2026-05-08 04:13 34.60821 -91.63004 30686 ft 597 kts 102°
2026-05-08 04:14 34.60206 -91.58061 29813 ft 600 kts 99°
2026-05-08 04:14 34.59759 -91.52970 29090 ft 603 kts 97°
2026-05-08 04:14 34.59211 -91.47990 28439 ft 597 kts 101°
2026-05-08 04:14 34.58524 -91.43014 27401 ft 598 kts 102°
2026-05-08 04:15 34.57827 -91.38048 26513 ft 594 kts 101°
2026-05-08 04:15 34.57168 -91.33160 25595 ft 590 kts 101°
2026-05-08 04:15 34.56524 -91.28356 25308 ft 571 kts 102°
2026-05-08 04:15 34.55890 -91.23666 25307 ft 546 kts 101°
2026-05-08 04:16 34.55295 -91.19209 25124 ft 526 kts 101°
2026-05-08 04:16 34.54724 -91.14931 24463 ft 509 kts 101°
2026-05-08 04:16 34.54170 -91.10751 23723 ft 497 kts 101°
2026-05-08 04:16 34.53639 -91.06664 23042 ft 483 kts 101°
2026-05-08 04:17 34.53123 -91.02744 22292 ft 472 kts 100°
2026-05-08 04:17 34.52602 -90.98827 21448 ft 464 kts 100°
2026-05-08 04:17 34.52102 -90.94984 20580 ft 457 kts 100°
2026-05-08 04:17 34.51618 -90.91236 19750 ft 450 kts 100°
2026-05-08 04:18 34.51139 -90.87573 18921 ft 443 kts 100°
2026-05-08 04:18 34.50661 -90.83930 18087 ft 436 kts 99°
2026-05-08 04:18 34.50248 -90.80331 17464 ft 423 kts 92°
2026-05-08 04:18 34.50468 -90.76846 16700 ft 412 kts 73°
2026-05-08 04:19 34.51511 -90.73709 15935 ft 397 kts 52°
2026-05-08 04:19 34.53221 -90.71198 15129 ft 382 kts 38°
2026-05-08 04:19 34.55116 -90.68958 14364 ft 378 kts 40°
2026-05-08 04:19 34.56863 -90.66629 13588 ft 376 kts 44°
2026-05-08 04:20 34.58501 -90.64193 12811 ft 372 kts 47°
2026-05-08 04:20 34.60070 -90.61716 12026 ft 366 kts 48°
2026-05-08 04:20 34.61577 -90.59292 11255 ft 361 kts 49°
2026-05-08 04:20 34.63076 -90.56866 10484 ft 354 kts 49°
2026-05-08 04:21 34.64526 -90.54527 10038 ft 337 kts 49°
2026-05-08 04:21 34.65857 -90.52316 9955 ft 316 kts 56°
2026-05-08 04:21 34.66788 -90.49951 9645 ft 309 kts 65°
2026-05-08 04:21 34.67503 -90.47552 9244 ft 297 kts 68°
2026-05-08 04:22 34.68153 -90.45219 8847 ft 286 kts 68°
2026-05-08 04:22 34.68785 -90.42916 8428 ft 285 kts 68°
2026-05-08 04:22 34.69409 -90.40657 7917 ft 287 kts 68°
2026-05-08 04:22 34.70048 -90.38366 7359 ft 282 kts 68°
2026-05-08 04:23 34.70669 -90.36160 6843 ft 276 kts 68°
2026-05-08 04:23 34.71294 -90.33968 6326 ft 270 kts 68°
2026-05-08 04:23 34.71900 -90.31840 5819 ft 264 kts 69°
2026-05-08 04:23 34.72502 -90.29743 5303 ft 259 kts 68°
2026-05-08 04:24 34.73082 -90.27735 5054 ft 247 kts 68°
2026-05-08 04:24 34.73634 -90.25813 4999 ft 238 kts 68°
2026-05-08 04:24 34.74171 -90.23932 4987 ft 234 kts 68°
2026-05-08 04:24 34.74707 -90.22055 4987 ft 233 kts 68°
2026-05-08 04:25 34.75248 -90.20181 4985 ft 233 kts 68°
2026-05-08 04:25 34.75779 -90.18361 4975 ft 229 kts 68°
2026-05-08 04:25 34.76315 -90.16516 4657 ft 231 kts 68°
2026-05-08 04:25 34.76847 -90.14702 4272 ft 227 kts 68°
2026-05-08 04:26 34.77381 -90.12907 3894 ft 223 kts 68°
2026-05-08 04:26 34.77913 -90.11146 3515 ft 219 kts 68°
2026-05-08 04:26 34.78436 -90.09429 3152 ft 217 kts 68°
2026-05-08 04:26 34.78966 -90.07707 3014 ft 215 kts 68°
2026-05-08 04:27 34.79492 -90.06003 2982 ft 215 kts 68°
2026-05-08 04:27 34.80010 -90.04336 2937 ft 203 kts 67°
2026-05-08 04:27 34.80753 -90.02947 2634 ft 197 kts 39°
2026-05-08 04:27 34.81864 -90.02023 2259 ft 190 kts 30°
2026-05-08 04:28 34.82996 -90.01271 1982 ft 184 kts 28°
2026-05-08 04:28 34.84125 -90.00547 1986 ft 184 kts 28°
2026-05-08 04:28 34.85263 -89.99817 1979 ft 183 kts 28°
2026-05-08 04:28 34.86393 -89.99088 1979 ft 183 kts 28°
2026-05-08 04:29 34.87540 -89.98371 1973 ft 183 kts 20°
2026-05-08 04:29 34.88799 -89.98172 1991 ft 184 kts 355°
2026-05-08 04:29 34.90071 -89.98409 1977 ft 185 kts 351°
2026-05-08 04:29 34.91327 -89.98532 1979 ft 178 kts
2026-05-08 04:30 34.92559 -89.98527 1999 ft 175 kts
2026-05-08 04:30 34.93781 -89.98523 1985 ft 174 kts
2026-05-08 04:30 34.94991 -89.98538 1824 ft 176 kts 360°
2026-05-08 04:30 34.96226 -89.98569 1606 ft 173 kts 359°
2026-05-08 04:31 34.97390 -89.98614 1485 ft 168 kts 359°
2026-05-08 04:31 34.98544 -89.98652 1157 ft 157 kts
2026-05-08 04:31 34.99633 -89.98661 890 ft 158 kts
2026-05-08 04:31 35.00725 -89.98665 684 ft 158 kts 359°
2026-05-08 04:32 35.01825 -89.98681 510 ft 157 kts 359°
2026-05-08 04:32 35.02894 -89.98703 350 ft 149 kts 360°
2026-05-08 04:32 35.03859 -89.98721 348 ft 118 kts 359°
2026-05-08 04:32 35.04535 -89.98737 348 ft 60 kts 359°
2026-05-08 04:33 35.04770 -89.98742 348 ft 18 kts 358°
2026-05-08 04:33 35.04829 -89.98679 348 ft 3 kts 89°
2026-05-08 04:33 35.04829 -89.98669 348 ft 0 kts 89°
2026-05-08 04:34 35.04829 -89.98656 348 ft 2 kts 89°
2026-05-08 04:34 35.04831 -89.98618 348 ft 6 kts 89°
2026-05-08 04:34 35.04839 -89.98542 348 ft 11 kts 60°
2026-05-08 04:34 35.04927 -89.98512 348 ft 16 kts 359°
2026-05-08 04:35 35.05056 -89.98511 348 ft 20 kts
2026-05-08 04:35 35.05214 -89.98509 348 ft 24 kts 360°
2026-05-08 04:35 35.05400 -89.98508 348 ft 28 kts
2026-05-08 04:35 35.05602 -89.98507 348 ft 25 kts
2026-05-08 04:36 35.05783 -89.98505 348 ft 26 kts 360°
2026-05-08 04:36 35.05943 -89.98511 348 ft 15 kts 356°
2026-05-08 04:36 35.06021 -89.98481 348 ft 12 kts 71°
2026-05-08 04:36 35.06020 -89.98355 348 ft 18 kts 92°
2026-05-08 04:37 35.06015 -89.98173 348 ft 24 kts 91°
2026-05-08 04:37 35.06009 -89.97940 348 ft 30 kts 92°
2026-05-08 04:37 35.05981 -89.97671 348 ft 32 kts 105°
2026-05-08 04:37 35.05938 -89.97405 348 ft 32 kts 92°
2026-05-08 04:38 35.05933 -89.97204 348 ft 14 kts 92°
2026-05-08 04:38 35.05938 -89.97132 348 ft 5 kts 48°
2026-05-08 04:38 35.05983 -89.97114 348 ft 8 kts
2026-05-08 04:38 35.06009 -89.97112 348 ft 1 kts
2026-05-08 04:39 35.06016 -89.97111 348 ft 0 kts
2026-05-08 04:39 35.06019 -89.97111 348 ft 0 kts